This is the latest recevied weather packets stored in our database for station/object W1RCP. If no packets are shown the sender has not sent any weather packets the latest 10 day(s).
| Time | Temp. | Humidity | Pressure | Rain* | Wind** | Luminosity | Snow |
|---|---|---|---|---|---|---|---|
| 1777988350 | 21.11° C | 68% | 1027.4 hPa | 0 mm | - | 489 W/m² | - |
| 1777988047 | 21.11° C | 67% | 1027.4 hPa | 0 mm | - | 442 W/m² | - |
| 1777987742 | 20.56° C | 70% | 1027.6 hPa | 0 mm | - | 419 W/m² | - |
| 1777987440 | 20° C | 69% | 1027.6 hPa | 0 mm | - | 400 W/m² | - |
| 1777987137 | 20.56° C | 69% | 1027.4 hPa | 0 mm | - | 385 W/m² | - |
| 1777986834 | 20° C | 69% | 1027.2 hPa | 0 mm | - | 359 W/m² | - |
| 1777986532 | 20° C | 70% | 1027.3 hPa | 0 mm | - | 332 W/m² | - |
| 1777986230 | 19.44° C | 72% | 1027 hPa | 0 mm | - | 327 W/m² | - |
| 1777985927 | 18.89° C | 71% | 1027.2 hPa | 0 mm | - | 300 W/m² | - |
| 1777985625 | 18.89° C | 72% | 1027.1 hPa | 0 mm | - | 224 W/m² | - |
| 1777985320 | 18.33° C | 72% | 1027.1 hPa | 0 mm | - | 178 W/m² | - |
| 1777985017 | 18.89° C | 72% | 1027.1 hPa | 0 mm | - | 147 W/m² | - |
| 1777984713 | 18.89° C | 71% | 1027.1 hPa | 0 mm | - | 53 W/m² | - |
| 1777984410 | 18.89° C | 73% | 1027.1 hPa | 0 mm | - | 51 W/m² | - |
| 1777984106 | 18.33° C | 74% | 1027.1 hPa | 0 mm | - | 50 W/m² | - |
| 1777983804 | 17.78° C | 74% | 1026.9 hPa | 0 mm | - | 49 W/m² | - |
| 1777983500 | 17.22° C | 76% | 1027 hPa | 0 mm | - | 47 W/m² | - |
| 1777983197 | 17.22° C | 78% | 1026.9 hPa | 0 mm | - | 47 W/m² | - |
| 1777982893 | 16.67° C | 79% | 1026.8 hPa | 0 mm | - | 46 W/m² | - |
| 1777982589 | 15.56° C | 82% | 1027 hPa | 0 mm | - | 44 W/m² | - |
| 1777982288 | 15° C | 87% | 1026.9 hPa | 0 mm | - | 41 W/m² | - |
| 1777981986 | 14.44° C | 89% | 1026.6 hPa | 0 mm | - | 39 W/m² | - |
| 1777981683 | 13.89° C | 91% | 1026.6 hPa | 0 mm | - | 37 W/m² | - |
| 1777981380 | 13.33° C | 92% | 1026.7 hPa | 0 mm | - | 34 W/m² | - |
| 1777981076 | 12.78° C | 92% | 1026.7 hPa | 0 mm | - | 32 W/m² | - |
* Rain latest hour (hover to see other rain measurements)
** Current wind speed in m/s (hover to see current wind gust speed)